MMS 1 (40482 NORAD) Tracking and Keplerian Element Data

This shows tracking and keplerian element data for the satellite.

Feedback or suggestion? Click here.




ElementValue
Catalog40482
NameMMS 1
Epoch Orbit1534
Epoch Day160.25001157
Epoch Year2024
RAAN11.7721
Inclination47.5937
Eccentricity0.9100701
Argument of Perigee146.1508
Mean Anonmoly294.1153
Mean Motion0.28391961
Decay Rate-1.064E-05
L11 40482U 15011A 24160.25001157 -.00001064 00000+0 00000+0 0 9990
L22 40482 47.5937 11.7721 9100701 146.1508 294.1153 0.28391961 15344



Live tracking and technical data element details for MMS 1 (NORAD 40482). MMS 1 can be tracked NOW for your location showing map with azimuth and elevation plus other details from your city location.







IsCatalogInMostPopularTable: catalog: 40482, numindb: 650
Update: records affected: 1



GetName: 40482 MMS 1

Hit Count: updated at: Mon, 17 Jun 2024 22:58:24 GMT